Location: Baia Mare
(47.6567°N, 23.5850°E)
Time: 23:35:13
(UTC+02:00)

ISS - Pass Details

Date: 13 December 2018
Orbit: 406 x 411 km, 51.6° (Epoch: 21 March)

Event Time Altitude Azimuth Distance (km) Brightness Sun altitude
Rises 17:16:12 0° 292° (WNW) 2,333 0.7 -6.9°
Reaches altitude 10° 17:18:21 10° 285° (WNW) 1,468 -0.2 -7.3°
Maximum altitude 17:21:28 41° 213° (SSW) 599 -2.4 -7.7°
Drops below altitude 10° 17:24:35 10° 142° (SE) 1,459 -1.1 -8.2°
Enters shadow 17:29:38 -9° 131° (SE) 3,515 0.7 -9.0°
